Regional Weather Roundup
Issued by NWS

Home | Current Version | Previous Version | Graphics & Text | Print | Product List | Glossary On
Versions: 1 2 3 4 5 6 7 8 9 10 11 12 13 14 15 16 17 18 19 20 21 22 23 24 25 26 27 28 29 30 31 32 33 34 35 36 37 38 39 40 41 42 43 44 45 46 47 48 49 50
000
ASUS43 KMPX 300401
RWRMN
WEATHER ROUNDUP FOR MINNESOTA
NATIONAL WEATHER SERVICE TWIN CITIES/CHANHASSEN MN
1100 PM CDT FRI AUG 29 2014


NOTE: "FAIR" INDICATES FEW OR NO CLOUDS BELOW 12,000 FEET WITH NO
SIGNIFICANT WEATHER AND/OR OBSTRUCTIONS TO VISIBILITY. N/A MEANS
CURRENT SKY AND/OR WEATHER CONDITIONS ARE NOT AVAILABLE.

MNZ060>063-068>070-300500-
   Twin Cities Metro

CITY           SKY/WX    TMP DP  RH WIND       PRES   REMARKS
TWIN CITIES    CLOUDY    70  69  97 N5        29.76F
ST PAUL        CLOUDY    70  68  93 CALM      29.77S
CRYSTAL        CLOUDY    71  68  90 NE3       29.76S
BLAINE         LGT RAIN  70  70 100 N3        29.77F
LAKEVILLE      LGT RAIN  68  66  94 E3        29.76F
EDEN PRAIRIE   CLOUDY    71  69  93 N3        29.76S FOG
SOUTH ST PAUL  LGT RAIN  70  67  92 CALM      29.76F
LAKE ELMO      RAIN      68  68 100 E5        29.79R
$$
MNZ001>005-007-008-013>017-022>024-027-028-300500-
   Northwest Minnesota

CITY           SKY/WX    TMP DP  RH WIND       PRES   REMARKS
BEMIDJI        CLOUDY    64  62  91 N8        29.83R
HALLOCK        PTCLDY    55  52  88 N9        29.93R
ROSEAU         CLEAR     55  52  88 N9        29.90R
WARROAD        CLEAR     57  54  88 N7        29.90R
THIEF RVR FALL MOCLDY    61  55  82 N12       29.89S
CROOKSTON      CLOUDY    61  57  88 N12       29.90R
FOSSTON        CLOUDY    61  57  88 N12G18    29.87R
DETROIT LAKES  CLOUDY    64  63  94 NW10      29.84S
MOORHEAD       CLOUDY    63  61  94 N16G24    29.86S
PARK RAPIDS    CLOUDY    66  64  93 NW6       29.82S
MAHNOMEN       DRIZZLE   63  62  96 N12       29.84R
$$
MNZ006-009>011-018-025>026-300500-
   North Central Minnesota

CITY           SKY/WX    TMP DP  RH WIND       PRES   REMARKS
BAUDETTE       CLOUDY    59  56  89 N8        29.87R
FLAG ISLAND    CLEAR     61  57  88 N12       29.88R
INTL FALLS     CLOUDY    62  60  93 N9        29.83R
WASKISH        CLOUDY    59  57  94 N7        29.85R
BIG FORK       RAIN      64  63  94 CALM      29.82S
LONGVILLE      MOCLDY    61  61 100 CALM      29.81S FOG
GRAND RAPIDS   CLOUDY    64  63  94 CALM      29.82R
CRANE LAKE     CLOUDY    59  57  94 CALM      29.82S
ORR            CLOUDY    63  59  88 CALM      29.80R
COOK           MOCLDY    61  61 100 CALM      29.82R FOG
WALKER         CLOUDY    65  65  98 CALM      29.81S
$$
MNZ012-019>021-037-300500-
   Northeast Minnesota

CITY           SKY/WX    TMP DP  RH WIND       PRES   REMARKS
DULUTH         CLOUDY    63  60  90 CALM      29.80F
ELY            CLOUDY    61  59  94 CALM      29.81F
HIBBING        FOG       61  59  93 CALM      29.81S VSB 1/4
EVELETH        CLOUDY    63  61  94 CALM      29.82S FOG
DULUTH HARBOR  CLOUDY    63  61  94 E6        29.80S
TWO HARBORS    CLOUDY    61  55  82 CALM      29.78F
SILVER BAY     CLOUDY    59  59 100 CALM      29.79S FOG
GRAND MARAIS     N/A     60  59  96 CALM      29.78S
G MARAIS ARPRT CLOUDY    57  55  94 N5        29.81S
$$
MNZ029>031-032-039>041-046>048-054>057-064-300500-
   West Central Minnesota

CITY           SKY/WX    TMP DP  RH WIND       PRES   REMARKS
FERGUS FALLS   MOCLDY    64  63  94 N9        29.82S
WHEATON        CLOUDY    63  61  94 NW16      29.85R
MORRIS         MOCLDY    66  64  94 N6        29.81R
ALEXANDRIA     MOCLDY    65  64  97 N6        29.83R
ELBOW LAKE     MOCLDY    66  64  94 N5        29.82R
WADENA         PTCLDY    64  63  94 NW3       29.82R
GLENWOOD       MOCLDY    64  63  94 CALM      29.83R
APPLETON       MOCLDY    68  64  88 CALM      29.81R
BENSON         MOCLDY    64  63  94 CALM      29.81R
ORTONVILLE     CLOUDY    70  64  83 NW8       29.82R
MADISON        MOCLDY    70  66  88 CALM      29.82R
WILLMAR        FAIR      68  64  88 N3        29.82R
$$
MNZ033>034-036-042>043-049>051-058-059-300500-
   Central Minnesota

CITY           SKY/WX    TMP DP  RH WIND       PRES   REMARKS
ST CLOUD       CLOUDY    70  67  90 CALM      29.79R FOG
SAUK CENTRE    MOCLDY    66  64  94 CALM      29.81S
PAYNESVILLE    HVY RAIN  65  64  97 NW3       29.80F
AITKIN         CLOUDY    68  63  83 CALM      29.80R HAZE
PINE RIVER     CLOUDY    64  64 100 CALM      29.84S FOG
BRAINERD       CLOUDY    65  64  97 CALM      29.81R
STAPLES        CLOUDY    64  64 100 CALM      29.81R
LONG PRAIRIE   MOCLDY    64  63  94 CALM      29.82R
LITTLE FALLS   MOCLDY    66  64  94 CALM      29.81R FOG
LITCHFIELD     CLOUDY    70  70 100 CALM      29.80F
BUFFALO        CLOUDY    69  67  93 CALM      29.79F
MAPLE LAKE     CLOUDY    69  69  99 CALM      29.80S FOG
$$
MNZ037-044-045-052-053-300500-
   East Central Minnesota

CITY           SKY/WX    TMP DP  RH WIND       PRES   REMARKS
PRINCETON      CLOUDY    68  66  94 CALM      29.79S
MORA           CLOUDY    64  64 100 CALM      29.81S
CAMBRIDGE      CLOUDY    70  61  73 CALM      29.77S
RUSH CITY      CLOUDY    67  65  94 CALM      29.79S
MOOSE LAKE     CLOUDY    63  61  94 CALM      29.79R FOG
HINCKLEY       CLOUDY    66  64  94 CALM      29.79S
CLOQUET        FOG       63  61  94 CALM      29.80S VSB 1/2
MCGREGOR       CLOUDY    64  64 100 CALM      29.81R
$$
MNZ071>073-080-081-089-090-097-098-300500-
   Southwest Minnesota

CITY           SKY/WX    TMP DP  RH WIND       PRES   REMARKS
MONTEVIDEO     MOCLDY    66  66 100 N3        29.82R
GRANITE FALLS    N/A     64  65 100 NW3       29.82R FOG
CANBY          MOCLDY    68  67  95 CALM      29.83R FOG
MARSHALL       CLOUDY    66  63  88 NW3       29.80S
REDWOOD FALLS  CLOUDY    65  64  97 CALM      29.79S
OLIVIA         CLOUDY    64  63  94 CALM      29.79F
PIPESTONE      MOCLDY    66  64  94 CALM      29.84R FOG
WINDOM         CLOUDY    66  64  94 CALM      29.82R
WORTHINGTON    CLOUDY    66  64  94 CALM      29.84R
JACKSON        DRIZZLE   66  63  88 CALM      29.83S
TRACY          CLOUDY    67  66  96 CALM      29.82R
SLAYTON        CLOUDY    64  64 100 CALM      29.83S FOG
$$
MNZ065>067-074>077-082>085-091>093-300500-
   South Central Minnesota

CITY           SKY/WX    TMP DP  RH WIND       PRES   REMARKS
MANKATO        CLOUDY    70  64  83 NW6       29.78S
NEW ULM        LGT RAIN  66  66 100 NW5       29.79S
ST JAMES       RAIN      66  64  94 SW5       29.81S
FAIRMONT       CLOUDY    64  63  94 NW3       29.81R
GLENCOE        LGT RAIN  70  67  90 CALM      29.78F
FARIBAULT      CLOUDY    72  64  78 NW6       29.76F
OWATONNA       TSTM      70  66  88 SE3       29.78R
WASECA         TSTM      68  63  83 W3        29.80R
ALBERT LEA     RAIN      66  66 100 SW6       29.77F
$$
MNZ078>079-086>088-094>096-300500-
   Southeast Minnesota

CITY           SKY/WX    TMP DP  RH WIND       PRES   REMARKS
ROCHESTER      LGT RAIN  65  63  93 S8        29.77F
RED WING       CLOUDY    72  64  78 E10       29.77R
STANTON        LGT RAIN  70  67  91 E6        29.75S
DODGE CENTER   LGT RAIN  66  64  94 CALM      29.75F
WINONA         LGT RAIN  68  68 100 CALM      29.77F
AUSTIN         CLOUDY    64  64 100 CALM      29.76F
PRESTON        LGT RAIN  65  65 100 CALM      29.79F VSB 1
$$
ABBREVIATIONS USED IN REMARKS
   TC - TEMPERATURES IN CELSIUS
  WCI - WIND CHILL INDEX
   HX - HEAT INDEX
  VSB - VISIBILITY
$$


USA.gov is the U.S. government's official web portal to all federal, state and local government web resources and services.